SCP
0 0 0 0 0 0 0 -0 -0 -0 -0 -0 0 0 0 0 0 0 0 0 0 0 0 0 0 0 0 0 0 0 0 0 0 0 0 0 0 0
0 0 0 0 0 0 0 -0 -0 -0 -0 -0 -0 0 0 0 0 0 0 0 0 0 0 0 0 0 0 0 0 0 0 0 0 0 0 0 0 0
0 0 0 -0 0 0 0 -0 -0 -0 -0 -0 -0 -0 0 0 0 0 0 0 0 0 0 0 0 0 0 0 0 0 0 0 0 0 0 0 0 0
0 0 0 0 0 0 0 -0 -0 0 -0 -0 -0 -0 0 0 0 0 0 0 0 0 0 0 0 0 0 0 0 0 0 0 0 0 0 0 0 0
0 0 0 0 0 0 0 -0 -0 -0 -0 -0 -0 -0 0 0 0 0 0 0 0 0 0 0 0 0 0 0 0 0 0 0 0 0 0 0 0 0
0 0 0 0 0 0 0 0 -0 -0 -0 -0 -0 -0 0 0 0 0 0 0 0 0 0 0 0 0 0 0 0 0 0 0 0 0 0 0 0 0
0 0 0 0 0 0 0 0 -0 -0 -0 -0 -0 -0 0 0 0 0 0 0 0 0 0 0 0 0 0 0 0 0 0 0 0 0 0 0 0 0
0 0 0 0 0 0 0 0 0 -0 -0 -0 -0 -0 0 0 0 0 0 0 0 0 0 0 0 0 0 0 0 0 0 0 0 0 0 0 0 0
0 0 0 0 0 -0 -0 0 0 0 -0 0 -0 -0 0 0 0 0 0 0 0 0 0 0 0 0 0 0 0 0 0 0 0 0 0 0 0 0
0 0 0 0 -0 0 -0 -0 -0 -0 -0 -0 -0 0 0 0 0 0 0 0 0 0 0 0 0 0 0 0 0 0 0 0 0 0 0 0 0 0
0 0 0 0 0 0 0 -0 -0 -0 -0 0 0 0 0 0 0 0 0 0 0 0 0 0 0 0 0 0 0 0 0 0 0 0 0 0 0 0
0 0 0 0 0 0 -0 -0 -0 -0 -0 0 -0 0 0 0 0 0 0 0 0 0 0 0 0 0 0 0 0 0 0 0 0 0 0 0 0 0
0 0 0 0 0 0 0 -0 -0 -0 -0 0 0 0 0 0 0 0 0 0 0 0 0 0 0 0 0 0 0 0 0 0 0 0 0 0 0 0
0 0 0 0 0 0 0 -0 -0 -0 0 0 0 0 0 0 0 0 0 0 0 0 0 0 0 0 0 0 0 0 0 0 0 0 0 0 0 0
-0 0 0 0 0 0 0 0 -0 -0 0 0 0 0 0 0 0 0 0 0 0 0 0 0 0 0 0 0 0 0 0 0 0 0 0 0 0 0
-0 0 0 0 0 0 0 0 -0 -0 0 0 0 0 0 0 0 0 0 0 0 0 0 0 0 0 0 0 0 0 0 0 0 0 0 0 0 0
-0 0 0 0 0 0 0 0 0 0 0 0 0 0 0 0 0 0 0 0 0 0 0 0 0 0 0 0 0 0 0 0 0 0 0 0 0 0
0 0 0 0 0 0 0 0 0 0 0 0 0 0 0 0 0 0 0 0 0 0 0 0 0 0 0 0 0 0 0 0 0 0 0 0 0 0
0 0 0 0 0 0 0 0 0 0 0 0 0 0 0 0 0 0 0 0 0 0 0 0 0 0 0 0 0 0 0 0 0 0 0 0 0 0
0 0 0 0 0 0 0 0 -0 0 0 0 0 0 0 0 0 0 0 0 0 0 0 0 0 0 0 0 0 0 0 0 0 0 0 0 0 0
0 0 0 0 0 0 0 0 -0 0 0 0 0 0 0 0 0 0 0 0 0 0 0 0 0 0 0 0 0 0 0 0 0 0 0 0 0 0
0 0 0 0 0 0 0 0 0 0 0 0 0 0 0 0 0 0 0 0 0 0 0 0 0 0 0 0 0 0 0 0 0 0 0 0 0 0
0 0 0 0 0 0 0 0 0 0 0 0 0 0 0 0 0 0 0 0 0 0 0 0 0 0 0 0 0 0 0 0 0 0 0 0 0 0
Wind_Speed_500mb
84 91 94 89 72 84 75 71 67 65 67 97 100 56 103 92 92 85 97 117 145 146 112 116 115 116 120 110 112 106 102 97 97 93 90 85 78 75
67 71 79 95 79 73 81 74 71 75 80 75 87 118 61 97 104 94 124 143 167 142 129 124 115 119 116 111 109 104 101 98 97 97 94 90 83 81
84 82 90 99 97 63 76 68 65 64 75 86 92 125 47 123 101 103 88 90 92 100 117 117 115 120 115 115 107 104 100 99 99 98 95 92 89 88
78 77 86 81 97 63 74 71 68 73 75 83 78 105 112 103 128 127 116 102 108 118 123 111 119 118 114 111 109 107 104 103 100 96 93 92 97 94
84 87 87 81 96 78 63 66 69 64 80 74 92 110 102 113 110 122 127 133 142 125 118 113 118 120 118 114 113 110 106 103 101 98 93 92 96 95
80 77 82 82 94 83 53 68 69 69 76 69 88 102 120 89 128 131 133 133 134 120 117 115 119 121 119 119 114 110 102 101 99 100 95 91 96 96
76 73 76 71 90 93 79 48 68 65 76 80 90 87 98 113 126 123 127 132 142 143 127 118 117 122 120 115 114 107 96 99 99 98 93 86 94 98
81 82 77 75 76 98 85 74 64 76 74 79 91 103 107 129 119 131 129 118 104 123 140 125 121 127 126 121 116 107 96 101 104 90 85 83 93 89
79 81 80 77 69 76 92 91 78 80 76 77 86 112 79 130 124 132 135 142 130 143 143 115 136 134 131 123 112 104 109 99 91 86 82 82 88 83
82 82 81 79 77 72 71 87 95 89 88 84 91 104 90 132 140 153 155 144 119 149 144 116 140 118 132 125 111 109 104 95 87 85 82 82 81 81
88 78 74 78 79 69 66 78 80 93 90 87 90 106 105 137 156 136 132 133 116 133 130 117 129 115 126 127 117 104 104 95 87 87 84 81 79 79
63 75 70 70 72 60 66 75 83 90 88 87 77 84 111 144 149 163 159 148 135 114 135 114 125 121 98 126 120 115 108 99 92 88 85 83 79 80
65 74 65 55 59 68 65 74 88 83 97 90 76 76 132 145 145 165 178 166 147 132 149 133 132 123 105 111 126 122 116 109 99 91 84 83 82 86
63 60 54 50 47 54 56 56 73 82 86 81 66 65 124 127 147 159 166 162 170 164 161 141 125 145 114 106 120 133 127 117 110 104 97 90 82 84
61 56 51 48 47 58 56 57 52 56 68 69 59 68 118 129 137 155 157 151 140 140 159 184 138 150 128 109 118 136 134 127 119 112 111 102 103 96
60 56 50 48 45 51 51 45 50 57 61 64 53 80 113 118 123 146 132 141 119 113 123 166 143 155 131 119 127 128 145 132 122 117 114 109 107 106
60 57 46 35 39 43 49 53 51 62 60 61 50 84 106 115 114 131 120 120 117 121 119 135 133 132 138 136 116 130 145 131 129 126 124 121 121 119
20 16 24 30 32 33 31 44 53 57 59 53 57 97 110 111 117 121 124 129 113 121 129 137 123 108 109 108 129 126 132 135 131 128 126 126 134 127
46 37 28 24 26 24 17 33 40 46 53 49 72 95 108 109 114 115 114 115 106 123 120 142 143 137 108 106 126 121 135 125 138 132 132 134 133 130
68 65 52 42 34 31 31 29 35 44 44 53 82 99 107 116 115 114 118 115 103 111 117 136 142 150 145 130 93 120 113 120 119 120 121 122 118 113
86 85 69 57 46 40 34 30 34 38 44 68 89 100 107 113 115 115 116 118 110 116 118 141 159 146 129 110 98 101 129 134 124 119 115 110 112 114
93 90 89 73 61 54 41 28 29 34 46 76 92 105 109 113 111 113 117 122 117 129 118 115 131 131 122 110 116 110 124 118 118 122 114 118 114 118
100 91 96 93 80 71 55 33 21 21 37 66 93 104 109 106 105 110 119 119 117 103 106 117 128 133 135 130 108 102 125 124 118 116 113 112 108 97
Wind_Direction_500mb
270 260 247 248 258 247 242 252 256 258 265 260 259 279 218 218 214 222 220 206 192 180 173 171 177 186 184 181 183 180 182 181 180 181 183 180 178 177
267 262 254 251 254 257 246 251 249 245 255 257 250 250 233 215 218 203 209 192 189 182 174 173 174 182 183 183 183 182 182 181 182 186 186 184 180 182
275 272 258 248 252 273 242 247 251 240 247 264 258 249 283 203 205 201 171 175 177 174 173 173 177 184 184 185 184 184 182 183 186 189 188 185 182 185
275 271 261 256 251 259 256 250 252 244 251 254 259 256 253 213 199 200 198 200 188 188 180 179 181 185 187 185 184 186 185 186 189 190 185 186 185 186
274 271 265 254 247 250 259 250 252 252 251 255 252 255 250 205 196 188 190 190 180 177 178 186 188 188 188 188 188 189 187 189 190 189 188 188 188 187
276 272 265 256 244 244 255 248 259 255 251 246 246 257 247 211 195 179 176 176 171 172 176 186 187 189 189 191 190 190 192 194 191 192 192 193 195 193
288 283 265 257 248 241 246 255 253 258 252 259 254 251 251 203 186 172 172 169 173 172 178 184 188 191 193 194 195 195 198 196 195 194 197 200 202 199
277 279 279 262 258 241 243 246 254 259 257 259 256 249 259 177 177 177 169 161 158 173 175 184 189 194 196 196 198 198 200 195 193 198 203 207 203 198
279 274 274 270 252 255 244 244 251 259 263 265 263 246 216 179 173 167 167 168 173 174 177 186 192 197 198 198 198 200 194 194 198 202 203 205 203 202
282 277 267 265 257 249 253 247 250 256 256 264 263 256 255 183 189 184 177 173 168 174 182 184 191 191 198 199 195 195 196 198 200 204 205 205 204 203
286 286 271 261 258 251 251 250 253 259 259 269 259 266 237 190 187 172 166 163 168 177 184 183 185 189 197 197 199 203 199 201 205 207 207 206 207 206
298 291 285 265 252 248 247 252 261 257 265 276 282 232 204 189 182 179 175 171 172 177 187 183 184 183 191 199 201 201 199 206 207 208 208 207 206 205
294 305 284 274 255 243 245 248 248 256 262 273 280 212 185 182 180 181 185 181 175 180 186 188 189 187 190 195 201 199 200 203 207 209 210 211 210 209
298 297 294 281 264 250 250 254 256 258 261 276 283 214 180 181 179 184 186 186 193 189 186 188 188 188 190 190 193 199 204 205 205 207 207 211 213 216
292 285 279 276 275 257 247 254 246 248 254 267 264 206 182 182 181 186 189 186 185 186 196 191 195 188 192 191 191 198 198 203 206 207 207 208 209 213
289 281 272 268 270 256 246 249 236 243 257 263 248 199 182 179 178 185 183 184 181 185 194 193 196 196 190 196 198 195 199 200 205 208 210 212 214 217
302 288 279 267 263 258 249 252 247 245 257 252 232 192 180 179 178 181 179 179 181 185 187 189 194 199 197 197 198 206 205 209 209 208 209 213 216 218
352 304 295 287 290 280 270 255 253 252 254 238 215 189 183 181 182 185 184 185 181 184 185 187 188 187 193 202 208 205 209 212 215 214 212 212 218 221
38 24 6 343 328 315 286 253 276 273 252 222 207 188 195 195 187 184 184 182 181 185 185 189 192 190 186 196 201 208 208 213 216 214 217 219 222 227
34 22 11 1 347 325 300 278 258 262 260 218 206 195 195 190 186 186 186 184 182 186 186 193 195 196 200 201 199 208 210 214 212 214 216 221 227 231
27 19 18 10 2 343 322 295 270 254 241 216 207 199 200 197 192 192 191 189 185 189 190 195 200 202 201 203 204 207 212 219 224 223 220 220 224 227
26 21 17 19 14 3 347 317 278 255 226 216 205 202 201 200 199 198 194 192 191 197 197 199 202 201 199 197 202 205 211 216 224 230 233 238 230 229
29 25 16 20 22 19 7 354 313 251 211 206 209 205 205 202 201 205 204 200 196 195 194 200 206 209 209 211 210 205 212 214 216 218 226 230 235 238
Wind_Speed_850mb
84 91 94 89 72 84 75 71 67 65 67 97 100 56 103 92 92 85 97 117 145 146 112 116 115 116 120 110 112 106 102 97 97 93 90 85 78 75
67 71 79 95 79 73 81 74 71 75 80 75 87 118 61 97 104 94 124 143 167 142 129 124 115 119 116 111 109 104 101 98 97 97 94 90 83 81
84 82 90 99 97 63 76 68 65 64 75 86 92 125 47 123 101 103 88 90 92 100 117 117 115 120 115 115 107 104 100 99 99 98 95 92 89 88
78 77 86 81 97 63 74 71 68 73 75 83 78 105 112 103 128 127 116 102 108 118 123 111 119 118 114 111 109 107 104 103 100 96 93 92 97 94
84 87 87 81 96 78 63 66 69 64 80 74 92 110 102 113 110 122 127 133 142 125 118 113 118 120 118 114 113 110 106 103 101 98 93 92 96 95
80 77 82 82 94 83 53 68 69 69 76 69 88 102 120 89 128 131 133 133 134 120 117 115 119 121 119 119 114 110 102 101 99 100 95 91 96 96
76 73 76 71 90 93 79 48 68 65 76 80 90 87 98 113 126 123 127 132 142 143 127 118 117 122 120 115 114 107 96 99 99 98 93 86 94 98
81 82 77 75 76 98 85 74 64 76 74 79 91 103 107 129 119 131 129 118 104 123 140 125 121 127 126 121 116 107 96 101 104 90 85 83 93 89
79 81 80 77 69 76 92 91 78 80 76 77 86 112 79 130 124 132 135 142 130 143 143 115 136 134 131 123 112 104 109 99 91 86 82 82 88 83
82 82 81 79 77 72 71 87 95 89 88 84 91 104 90 132 140 153 155 144 119 149 144 116 140 118 132 125 111 109 104 95 87 85 82 82 81 81
88 78 74 78 79 69 66 78 80 93 90 87 90 106 105 137 156 136 132 133 116 133 130 117 129 115 126 127 117 104 104 95 87 87 84 81 79 79
63 75 70 70 72 60 66 75 83 90 88 87 77 84 111 144 149 163 159 148 135 114 135 114 125 121 98 126 120 115 108 99 92 88 85 83 79 80
65 74 65 55 59 68 65 74 88 83 97 90 76 76 132 145 145 165 178 166 147 132 149 133 132 123 105 111 126 122 116 109 99 91 84 83 82 86
63 60 54 50 47 54 56 56 73 82 86 81 66 65 124 127 147 159 166 162 170 164 161 141 125 145 114 106 120 133 127 117 110 104 97 90 82 84
61 56 51 48 47 58 56 57 52 56 68 69 59 68 118 129 137 155 157 151 140 140 159 184 138 150 128 109 118 136 134 127 119 112 111 102 103 96
60 56 50 48 45 51 51 45 50 57 61 64 53 80 113 118 123 146 132 141 119 113 123 166 143 155 131 119 127 128 145 132 122 117 114 109 107 106
60 57 46 35 39 43 49 53 51 62 60 61 50 84 106 115 114 131 120 120 117 121 119 135 133 132 138 136 116 130 145 131 129 126 124 121 121 119
20 16 24 30 32 33 31 44 53 57 59 53 57 97 110 111 117 121 124 129 113 121 129 137 123 108 109 108 129 126 132 135 131 128 126 126 134 127
46 37 28 24 26 24 17 33 40 46 53 49 72 95 108 109 114 115 114 115 106 123 120 142 143 137 108 106 126 121 135 125 138 132 132 134 133 130
68 65 52 42 34 31 31 29 35 44 44 53 82 99 107 116 115 114 118 115 103 111 117 136 142 150 145 130 93 120 113 120 119 120 121 122 118 113
86 85 69 57 46 40 34 30 34 38 44 68 89 100 107 113 115 115 116 118 110 116 118 141 159 146 129 110 98 101 129 134 124 119 115 110 112 114
93 90 89 73 61 54 41 28 29 34 46 76 92 105 109 113 111 113 117 122 117 129 118 115 131 131 122 110 116 110 124 118 118 122 114 118 114 118
100 91 96 93 80 71 55 33 21 21 37 66 93 104 109 106 105 110 119 119 117 103 106 117 128 133 135 130 108 102 125 124 118 116 113 112 108 97
Wind_Direction_850mb
270 260 247 248 258 247 242 252 256 258 265 260 259 279 218 218 214 222 220 206 192 180 173 171 177 186 184 181 183 180 182 181 180 181 183 180 178 177
267 262 254 251 254 257 246 251 249 245 255 257 250 250 233 215 218 203 209 192 189 182 174 173 174 182 183 183 183 182 182 181 182 186 186 184 180 182
275 272 258 248 252 273 242 247 251 240 247 264 258 249 283 203 205 201 171 175 177 174 173 173 177 184 184 185 184 184 182 183 186 189 188 185 182 185
275 271 261 256 251 259 256 250 252 244 251 254 259 256 253 213 199 200 198 200 188 188 180 179 181 185 187 185 184 186 185 186 189 190 185 186 185 186
274 271 265 254 247 250 259 250 252 252 251 255 252 255 250 205 196 188 190 190 180 177 178 186 188 188 188 188 188 189 187 189 190 189 188 188 188 187
276 272 265 256 244 244 255 248 259 255 251 246 246 257 247 211 195 179 176 176 171 172 176 186 187 189 189 191 190 190 192 194 191 192 192 193 195 193
288 283 265 257 248 241 246 255 253 258 252 259 254 251 251 203 186 172 172 169 173 172 178 184 188 191 193 194 195 195 198 196 195 194 197 200 202 199
277 279 279 262 258 241 243 246 254 259 257 259 256 249 259 177 177 177 169 161 158 173 175 184 189 194 196 196 198 198 200 195 193 198 203 207 203 198
279 274 274 270 252 255 244 244 251 259 263 265 263 246 216 179 173 167 167 168 173 174 177 186 192 197 198 198 198 200 194 194 198 202 203 205 203 202
282 277 267 265 257 249 253 247 250 256 256 264 263 256 255 183 189 184 177 173 168 174 182 184 191 191 198 199 195 195 196 198 200 204 205 205 204 203
286 286 271 261 258 251 251 250 253 259 259 269 259 266 237 190 187 172 166 163 168 177 184 183 185 189 197 197 199 203 199 201 205 207 207 206 207 206
298 291 285 265 252 248 247 252 261 257 265 276 282 232 204 189 182 179 175 171 172 177 187 183 184 183 191 199 201 201 199 206 207 208 208 207 206 205
294 305 284 274 255 243 245 248 248 256 262 273 280 212 185 182 180 181 185 181 175 180 186 188 189 187 190 195 201 199 200 203 207 209 210 211 210 209
298 297 294 281 264 250 250 254 256 258 261 276 283 214 180 181 179 184 186 186 193 189 186 188 188 188 190 190 193 199 204 205 205 207 207 211 213 216
292 285 279 276 275 257 247 254 246 248 254 267 264 206 182 182 181 186 189 186 185 186 196 191 195 188 192 191 191 198 198 203 206 207 207 208 209 213
289 281 272 268 270 256 246 249 236 243 257 263 248 199 182 179 178 185 183 184 181 185 194 193 196 196 190 196 198 195 199 200 205 208 210 212 214 217
302 288 279 267 263 258 249 252 247 245 257 252 232 192 180 179 178 181 179 179 181 185 187 189 194 199 197 197 198 206 205 209 209 208 209 213 216 218
352 304 295 287 290 280 270 255 253 252 254 238 215 189 183 181 182 185 184 185 181 184 185 187 188 187 193 202 208 205 209 212 215 214 212 212 218 221
38 24 6 343 328 315 286 253 276 273 252 222 207 188 195 195 187 184 184 182 181 185 185 189 192 190 186 196 201 208 208 213 216 214 217 219 222 227
34 22 11 1 347 325 300 278 258 262 260 218 206 195 195 190 186 186 186 184 182 186 186 193 195 196 200 201 199 208 210 214 212 214 216 221 227 231
27 19 18 10 2 343 322 295 270 254 241 216 207 199 200 197 192 192 191 189 185 189 190 195 200 202 201 203 204 207 212 219 224 223 220 220 224 227
26 21 17 19 14 3 347 317 278 255 226 216 205 202 201 200 199 198 194 192 191 197 197 199 202 201 199 197 202 205 211 216 224 230 233 238 230 229
29 25 16 20 22 19 7 354 313 251 211 206 209 205 205 202 201 205 204 200 196 195 194 200 206 209 209 211 210 205 212 214 216 218 226 230 235 238